Regional Weather Roundup
Issued by NWS

Home | Current Version | Previous Version | Graphics & Text | Print | Product List | Glossary On
Versions: 1 2 3 4 5 6 7 8 9 10 11 12 13 14 15 16 17 18 19 20 21 22 23 24 25 26 27 28 29 30 31 32 33 34 35 36 37 38 39 40 41 42 43 44 45 46 47 48 49 50
612
ASUS43 KFSD 242302
RWRSD

WEATHER ROUNDUP FOR SOUTH DAKOTA
NATIONAL WEATHER SERVICE SIOUX FALLS SD
600 PM CDT SUN JUL 24 2016

NOTE: "FAIR" INDICATES FEW OR NO CLOUDS BELOW 12,000 FEET WITH NO
SIGNIFICANT WEATHER AND/OR OBSTRUCTIONS TO VISIBILITY.


SDZ001>005-009-010-012>017-250000-
NORTHWEST AND NORTH CENTRAL SOUTH DAKOTA

CITY           SKY/WX    TMP DP  RH WIND       PRES   REMARKS
BUFFALO          N/A     89  42  19 VRB5      30.01S
FAITH            N/A     86  41  20 E3        30.07F
MOBRIDGE       SUNNY     89  50  26 NW8       30.02S
$$

SDZ012>016-024>037-041>051-057-063-072>074-250000-
SOUTHWEST AND SOUTH CENTRAL SOUTH DAKOTA

CITY           SKY/WX    TMP DP  RH WIND       PRES   REMARKS
RAPID CTY ARPT SUNNY     87  47  24 S9G18     30.08F
PIERRE         SUNNY     87  48  25 VRB6      30.03F
CUSTER         SUNNY     78  41  26 SW9       30.23F
ELLSWORTH AFB  MOSUNNY   85  48  28 S9        30.08F
PHILIP         SUNNY     88  52  29 VRB6      30.05F
PINE RIDGE     SUNNY     87  46  24 S8G20     30.10F
WINNER         FAIR      87  48  25 CALM      30.06F
$$

SDZ004>011-016>023-039-040-250000-
NORTHEAST SOUTH DAKOTA

CITY           SKY/WX    TMP DP  RH WIND       PRES   REMARKS
ABERDEEN       SUNNY     84  56  38 NW16      30.01S
WATERTOWN      SUNNY     83  56  39 NW13      30.02S
BROOKINGS      SUNNY     78  62  57 NW10      30.03F
SISSETON         N/A     82  56  40 NW13      29.97S
$$

SDZ017-020-022-023-036>040-048>070-250000-
SOUTHEAST SOUTH DAKOTA

CITY           SKY/WX    TMP DP  RH WIND       PRES   REMARKS
SIOUX FALLS    CLOUDY    78  63  59 NW10      30.04R
HURON          MOSUNNY   84  58  40 CALM      30.02S
CHAMBERLAIN    SUNNY     86  52  30 E3        30.05S
MITCHELL       SUNNY     82  59  45 N6        30.04F
YANKTON        CLOUDY    81  59  47 N5        30.03F
$$

ABBREVIATIONS USED IN REMARKS
   TC - TEMPERATURE IN CELSIUS
  WCI - WIND CHILL INDEX
   HX - HEAT INDEX
  VSB - VISIBILITY





USA.gov is the U.S. government's official web portal to all federal, state and local government web resources and services.